Weather History for Akron Canton, OH

Change the Weather History Date:

Monday, July 15, 2013

  Actual Average Record
Temperature  
Mean Temperature 82 °F 72 °F  
Max Temperature 92 °F 82 °F 96 °F (1983)
Min Temperature 72 °F 62 °F 46 °F (1930)
Degree Days  
Heating Degree Days 0 0  
Month to date heating degree days 0 0  
Since 1 June heating degree days 27 49  
Since 1 July heating degree days 0 0  
Cooling Degree Days 17 7  
Month to date cooling degree days 152 105  
Year to date cooling degree days 419 282  
Since 1 June cooling degree days 313 240  
Growing Degree Days 32 (Base 50)    
Moisture  
Dew Point 69 °F    
Average Humidity 67    
Maximum Humidity 87    
Minimum Humidity 47    
Precipitation  
Precipitation 0.00 in 0.14 in 1.17 in (1992)
Month to date precipitation 4.99 1.98  
Year to date precipitation 23.16 21.54  
Snow  
Snow 0.00 in 0.00 in - ()
Month to date snowfall 0.0 0.0  
Since 1 June snowfall 0.0 0.0  
Since 1 July snowfall 0.0 0.0  
Snow Depth 0.00 in    
Sea Level Pressure  
Sea Level Pressure 30.29 in    
Wind  
Wind Speed 4 mph (SW)    
Max Wind Speed 10 mph    
Max Gust Speed 18 mph    
Visibility 10 miles    
Events      
T = Trace of Precipitation, MM = Missing Value Source: NWS Daily Summary

Daily Weather History Graph

Daily Weather History Graph

Search for Another Location

Airport:

Trip Planner

Search our weather history database for the weather conditions in past years. The results will help you decide how hot, cold, wet, or windy it might be!

Date:

Astronomy

Jul. 15, 2013 Rise Set
Actual Time 6:07 AM EDT 8:56 PM EDT
Civil Twilight 5:34 AM EDT 9:28 PM EDT
Nautical Twilight 4:53 AM EDT 10:09 PM EDT
Astronomical Twilight 4:06 AM EDT 10:56 PM EDT
Moon 1:28 PM EDT (7/15) 12:04 AM EDT (7/15)
Length of Visible Light 15h 53m
Length of Day
14h 49m
Waxing Crescent, 45% of the Moon is Illuminated
Jul 15
Waxing Crescent
Jul 15
First Quarter
Jul 22
Full
Jul 29
Last Quarter
Aug 6
New

Hourly Weather History & Observations

Time (EDT) Temp. Heat Index Dew Point Humidity Pressure Visibility Wind Dir Wind Speed Gust Speed Precip Events Conditions
12:51 AM 77.0 °F - 69.1 °F 76% 30.27 in 10.0 mi South 5.8 mph - N/A   Partly Cloudy
1:51 AM 75.0 °F - 69.1 °F 82% 30.27 in 10.0 mi South 5.8 mph - N/A   Clear
2:51 AM 75.9 °F - 69.1 °F 79% 30.27 in 10.0 mi SW 3.5 mph - N/A   Clear
3:51 AM 75.9 °F - 69.1 °F 79% 30.27 in 10.0 mi SW 3.5 mph - N/A   Clear
4:51 AM 73.0 °F - 68.0 °F 84% 30.28 in 10.0 mi SSW 5.8 mph - N/A   Clear
5:51 AM 73.9 °F - 69.1 °F 85% 30.29 in 10.0 mi Calm Calm - N/A   Clear
6:51 AM 73.9 °F - 69.1 °F 85% 30.31 in 9.0 mi SSE 3.5 mph - N/A   Partly Cloudy
7:51 AM 77.0 °F - 69.1 °F 76% 30.32 in 10.0 mi SSW 4.6 mph - N/A   Partly Cloudy
8:51 AM 79.0 °F - 69.1 °F 72% 30.33 in 10.0 mi SW 8.1 mph - N/A   Scattered Clouds
9:51 AM 81.0 °F 84.1 °F 69.1 °F 67% 30.33 in 10.0 mi WSW 6.9 mph - N/A   Scattered Clouds
10:51 AM 82.9 °F 85.8 °F 68.0 °F 60% 30.33 in 9.0 mi WSW 6.9 mph - N/A   Scattered Clouds
11:51 AM 84.9 °F 89.4 °F 70.0 °F 61% 30.33 in 10.0 mi WSW 3.5 mph - N/A   Scattered Clouds
12:51 PM 89.1 °F 94.1 °F 70.0 °F 53% 30.32 in 10.0 mi WNW 4.6 mph - N/A   Mostly Cloudy
1:51 PM 90.0 °F 94.5 °F 69.1 °F 50% 30.30 in 10.0 mi Calm Calm - N/A   Mostly Cloudy
2:51 PM 90.0 °F 93.6 °F 68.0 °F 48% 30.29 in 10.0 mi SSW 4.6 mph - N/A   Mostly Cloudy
3:51 PM 91.0 °F 95.2 °F 68.0 °F 47% 30.28 in 10.0 mi Variable 3.5 mph - N/A   Mostly Cloudy
4:51 PM 89.1 °F 92.9 °F 68.0 °F 50% 30.27 in 10.0 mi West 4.6 mph - N/A   Mostly Cloudy
5:51 PM 90.0 °F 92.8 °F 66.9 °F 46% 30.26 in 10.0 mi WSW 4.6 mph - N/A   Scattered Clouds
6:51 PM 90.0 °F 93.6 °F 68.0 °F 48% 30.25 in 10.0 mi West 5.8 mph - N/A   Scattered Clouds
7:51 PM 88.0 °F 92.1 °F 69.1 °F 53% 30.25 in 10.0 mi WSW 4.6 mph - N/A   Scattered Clouds
8:51 PM 84.0 °F 89.0 °F 71.1 °F 65% 30.25 in 10.0 mi Calm Calm - N/A   Scattered Clouds
9:51 PM 81.0 °F 84.9 °F 71.1 °F 72% 30.27 in 10.0 mi Calm Calm - N/A   Scattered Clouds
10:51 PM 82.9 °F 87.5 °F 71.1 °F 67% 30.28 in 10.0 mi West 4.6 mph - N/A   Scattered Clouds
11:51 PM 79.0 °F - 71.1 °F 77% 30.29 in 10.0 mi NNE 3.5 mph - N/A   Scattered Clouds